Location: downtown San Diego
(32.7310°N, 117.1990°W)
Time: 04:23:49
(UTC-07:00)

Helios 1A - Pass Details

Date: 14 June 2018
Orbit: 585 x 604 km, 98.2° (Epoch: 17 August)

Event Time Altitude Azimuth Distance (km) Brightness Sun altitude
Exits shadow 22:52:21 41° 285° (WNW) 857 4.0 -27.4°
Drops below altitude 10° 22:55:46 10° 333° (NNW) 1,925 6.6 -27.8°
Sets 22:58:01 0° 340° (NNW) 2,833 7.7 -28.0°
